TimeEDT,TemperatureF,Dew PointF,Humidity,Sea Level PressureIn,VisibilityMPH,Wind Direction,Wind SpeedMPH,Gust SpeedMPH,PrecipitationIn,Events,Conditions,WindDirDegrees,DateUTC
12:53 AM,71.1,60.1,68,30.13,10.0,SSE,9.2,-,N/A,,Clear,150,2013-08-21 04:53:00
1:53 AM,71.1,60.1,68,30.14,10.0,SSE,8.1,-,N/A,,Clear,150,2013-08-21 05:53:00
2:53 AM,70.0,61.0,73,30.13,9.0,SSE,8.1,-,N/A,,Clear,160,2013-08-21 06:53:00
3:53 AM,69.1,61.0,75,30.13,9.0,SSE,8.1,-,N/A,,Clear,150,2013-08-21 07:53:00
4:53 AM,68.0,61.0,78,30.13,8.0,SSE,4.6,-,N/A,,Clear,150,2013-08-21 08:53:00
5:53 AM,68.0,61.0,78,30.13,8.0,SSE,5.8,-,N/A,,Clear,150,2013-08-21 09:53:00
6:53 AM,66.9,60.1,79,30.14,6.0,SSE,5.8,-,N/A,,Haze,150,2013-08-21 10:53:00
7:53 AM,69.1,61.0,75,30.16,5.0,South,5.8,-,N/A,,Haze,170,2013-08-21 11:53:00
8:53 AM,73.9,62.1,66,30.17,6.0,South,6.9,-,N/A,,Haze,170,2013-08-21 12:53:00
9:53 AM,78.1,63.0,60,30.17,6.0,SE,6.9,-,N/A,,Haze,140,2013-08-21 13:53:00
10:35 AM,80.6,64.4,58,30.18,3.0,West,4.6,-,N/A,,Haze,280,2013-08-21 14:35:00
10:53 AM,81.0,66.0,60,30.16,7.0,WNW,3.5,-,N/A,,Partly Cloudy,290,2013-08-21 14:53:00
11:53 AM,82.0,64.9,56,30.15,6.0,WNW,5.8,-,N/A,,Haze,300,2013-08-21 15:53:00
12:53 PM,82.0,66.0,58,30.14,9.0,NNW,5.8,-,N/A,,Clear,340,2013-08-21 16:53:00
1:09 PM,84.2,68.0,58,30.15,1.0,NNE,6.9,-,N/A,,Haze,20,2013-08-21 17:09:00
1:24 PM,82.4,66.2,58,30.14,1.5,North,6.9,-,N/A,,Haze,10,2013-08-21 17:24:00
1:31 PM,82.4,66.2,58,30.14,9.0,NNE,6.9,-,N/A,,Clear,20,2013-08-21 17:31:00
1:53 PM,82.9,68.0,60,30.13,9.0,NNE,6.9,-,N/A,,Clear,20,2013-08-21 17:53:00
2:43 PM,84.2,64.4,51,30.11,2.0,North,5.8,-,N/A,,Partly Cloudy,10,2013-08-21 18:43:00
2:50 PM,84.2,64.4,51,30.10,9.0,North,6.9,-,N/A,,Partly Cloudy,10,2013-08-21 18:50:00
2:53 PM,84.0,64.9,53,30.09,9.0,North,6.9,-,N/A,,Partly Cloudy,360,2013-08-21 18:53:00
3:53 PM,82.0,70.0,67,30.09,9.0,NNE,9.2,-,N/A,,Partly Cloudy,20,2013-08-21 19:53:00
4:53 PM,80.1,70.0,71,30.08,7.0,NNE,4.6,-,N/A,,Partly Cloudy,20,2013-08-21 20:53:00
5:53 PM,79.0,69.1,72,30.06,7.0,NE,4.6,-,N/A,,Clear,50,2013-08-21 21:53:00
6:53 PM,77.0,66.9,71,30.04,8.0,NE,4.6,-,N/A,,Clear,40,2013-08-21 22:53:00
7:53 PM,75.9,68.0,76,30.04,7.0,NE,4.6,-,N/A,,Clear,50,2013-08-21 23:53:00
8:53 PM,73.9,68.0,82,30.04,8.0,Calm,Calm,-,N/A,,Clear,0,2013-08-22 00:53:00
9:53 PM,78.1,64.9,64,30.04,8.0,SSE,5.8,-,N/A,,Clear,160,2013-08-22 01:53:00
10:53 PM,75.9,64.9,69,30.05,9.0,WSW,8.1,-,N/A,,Clear,240,2013-08-22 02:53:00
11:53 PM,75.9,66.0,71,30.06,8.0,Variable,6.9,-,N/A,,Clear,0,2013-08-22 03:53:00